Easton, MD

12:12 AM EST on December 15, 2019 (GMT -0500)
Easton / Newnam

Weather History for KESN - November, 2019

Change the Weather History Date:

Thursday, November 21, 2019

  Actual Average Record
Temperature  
Mean Temperature 46 °F -  
Max Temperature 53 °F 50 °F 70 °F (1953)
Min Temperature 39 °F 36 °F 25 °F (1966)
Degree Days  
Heating Degree Days 19    
Moisture  
Dew Point 34 °F    
Average Humidity 66    
Maximum Humidity 76    
Minimum Humidity 47    
Precipitation  
Precipitation 0.00 in - - ()
Sea Level Pressure  
Sea Level Pressure 30.22 in    
Wind  
Wind Speed 6 mph ()    
Max Wind Speed 12 mph    
Max Gust Speed -    
Visibility 10.0 miles    
Events Rain    
Averages and records for this station are not official NWS values.
T = Trace of Precipitation, MM = Missing Value Source: Averaged Metar Reports

Daily Weather History Graph

Daily Weather History Graph

Search for Another Location

Airport or City:

Astronomy

Nov. 21, 2019 Rise Set
Actual Time 6:53 AM EST 4:46 PM EST
Civil Twilight 6:24 AM EST 5:15 PM EST
Nautical Twilight 5:51 AM EST 5:48 PM EST
Astronomical Twilight 5:19 AM EST 6:19 PM EST
Moon 12:50 AM EST (11/21) 2:10 PM EST (11/21)
Length of Visible Light 10h 51m
Length of Day
9h 53m
Waning Crescent, 30% of the Moon is Illuminated
Nov 21
Waning Crescent
Nov 26
New
Dec 4
First Quarter
Dec 12
Full
Dec 18
Last Quarter

Hourly Weather History & Observations

Time (EST) Temp. Windchill Dew Point Humidity Pressure Visibility Wind Dir Wind Speed Gust Speed Precip Events Conditions
12:12 AM 44.1 °F 39.5 °F 32.5 °F 64% 30.22 in 10.0 mi NW 8.1 mph - N/A   Clear
12:32 AM 43.2 °F 39.0 °F 32.4 °F 66% 30.22 in 10.0 mi NW 6.9 mph - N/A   Clear
12:52 AM 43.7 °F 39.7 °F 32.0 °F 63% 30.22 in 10.0 mi WNW 6.9 mph - N/A   Clear
1:12 AM 42.3 °F 37.9 °F 32.0 °F 67% 30.24 in 10.0 mi WNW 6.9 mph - N/A   Clear
1:32 AM 41.7 °F 37.3 °F 32.4 °F 69% 30.24 in 10.0 mi WNW 6.9 mph - N/A   Clear
1:52 AM 41.7 °F 36.1 °F 32.5 °F 70% 30.24 in 10.0 mi WNW 9.2 mph - N/A   Clear
2:32 AM 42.8 °F 38.0 °F 32.0 °F 66% 30.25 in 10.0 mi WNW 8.1 mph - N/A   Clear
2:52 AM 42.3 °F 37.3 °F 32.0 °F 67% 30.26 in 10.0 mi WNW 8.1 mph - N/A   Clear
3:12 AM 42.3 °F 37.3 °F 32.0 °F 67% 30.26 in 10.0 mi NW 8.1 mph - N/A   Clear
3:32 AM 42.6 °F 38.4 °F 32.0 °F 66% 30.26 in 10.0 mi NW 6.9 mph - N/A   Clear
3:52 AM 42.8 °F 39.3 °F 32.0 °F 66% 30.26 in 10.0 mi NW 5.8 mph - N/A   Clear
4:12 AM 42.4 °F 37.5 °F 32.0 °F 67% 30.26 in 10.0 mi NW 8.1 mph - N/A   Clear
4:32 AM 40.5 °F 36.5 °F 32.0 °F 72% 30.26 in 10.0 mi NW 5.8 mph - N/A   Clear
4:52 AM 39.9 °F 36.7 °F 32.0 °F 73% 30.27 in 10.0 mi WNW 4.6 mph - N/A   Clear
5:12 AM 39.7 °F 35.6 °F 32.0 °F 74% 30.26 in 10.0 mi NW 5.8 mph - N/A   Clear
5:32 AM 40.1 °F 36.9 °F 32.0 °F 73% 30.27 in 10.0 mi WNW 4.6 mph - N/A   Clear
5:44 AM 39.9 °F 37.8 °F 32.0 °F 73% 30.27 in 10.0 mi WNW 3.5 mph - N/A   Clear
5:50 AM 41.0 °F 38.0 °F 32.0 °F 70% 30.27 in 10.0 mi NW 4.6 mph - N/A   Clear
6:50 AM 39.2 °F 37.0 °F 32.0 °F 75% 30.29 in 10.0 mi WNW 3.5 mph - N/A   Clear
7:50 AM 41.0 °F 38.0 °F 33.8 °F 76% 30.30 in 10.0 mi West 4.6 mph - N/A   Clear
8:50 AM 46.4 °F 43.5 °F 35.6 °F 66% 30.30 in 10.0 mi NW 5.8 mph - N/A   Clear
9:50 AM 48.2 °F - 35.6 °F 62% 30.31 in 10.0 mi NW 6.9 mph - N/A   Clear
10:45 AM 50.0 °F - 35.6 °F 58% 30.30 in 10.0 mi WNW 5.8 mph - N/A   Clear
11:50 AM 51.8 °F - 33.8 °F 50% 30.27 in 10.0 mi WNW 5.8 mph - N/A   Clear
12:50 PM 51.8 °F - 33.8 °F 50% 30.24 in 10.0 mi SW 4.6 mph - N/A   Clear
1:50 PM 53.6 °F - 33.8 °F 47% 30.22 in 10.0 mi SW 5.8 mph - N/A   Clear
2:50 PM 51.8 °F - 33.8 °F 50% 30.21 in 10.0 mi SSW 3.5 mph - N/A   Clear
3:50 PM 51.8 °F - 33.8 °F 50% 30.19 in 10.0 mi Calm Calm - N/A   Clear
4:50 PM 48.2 °F - 33.8 °F 58% 30.19 in 10.0 mi South 3.5 mph - N/A   Clear
5:50 PM 48.2 °F - 35.6 °F 62% 30.18 in 10.0 mi South 5.8 mph - N/A   Clear
6:50 PM 48.2 °F - 35.6 °F 62% 30.16 in 10.0 mi SSE 5.8 mph - N/A   Clear
7:50 PM 46.4 °F 43.5 °F 37.4 °F 71% 30.16 in 10.0 mi SSE 5.8 mph - N/A   Clear
8:50 PM 46.4 °F 41.5 °F 39.2 °F 76% 30.15 in 10.0 mi SSE 10.4 mph - N/A   Clear
10:32 PM 49.1 °F - 41.2 °F 74% 30.10 in 10.0 mi South 11.5 mph - N/A   Clear
10:52 PM 49.1 °F - 41.0 °F 74% 30.10 in 10.0 mi South 8.1 mph - N/A   Clear
11:12 PM 48.7 °F - 41.0 °F 75% 30.08 in 10.0 mi South 9.2 mph - N/A   Clear
11:32 PM 49.6 °F - 40.1 °F 70% 30.07 in 10.0 mi South 8.1 mph - N/A   Scattered Clouds
11:52 PM 50.0 °F - 40.1 °F 69% 30.07 in 10.0 mi South 10.4 mph - N/A Rain Light Rain